�������C�����ː����j�^�v���󋵏��
Date,Time,Cs137(Bq/L),Cs134(Bq/L),�S��(Bq/L)
2016/11/03,00:00,0.82,0.094,ND
2016/11/03,00:10,0.85,0.093,ND
2016/11/03,00:20,0.86,0.096,ND
2016/11/03,00:30,0.88,0.092,ND
2016/11/03,00:40,0.87,0.086,ND
2016/11/03,00:50,0.85,0.077,ND
2016/11/03,01:00,0.83,0.077,ND
2016/11/03,01:10,0.80,0.087,ND
2016/11/03,01:20,0.77,0.087,ND
2016/11/03,01:30,0.75,0.084,ND
2016/11/03,01:40,0.70,0.084,ND
2016/11/03,01:50,0.72,0.081,ND
2016/11/03,02:00,0.71,0.069,ND
2016/11/03,02:10,0.70,0.064,ND
2016/11/03,02:20,0.70,0.062,ND
2016/11/03,02:30,0.69,0.058,ND
2016/11/03,02:40,0.68,0.057,ND
2016/11/03,02:50,0.68,0.055,ND
2016/11/03,03:00,0.65,0.063,ND
2016/11/03,03:10,0.66,0.056,ND
2016/11/03,03:20,0.62,0.053,ND
2016/11/03,03:30,0.63,0.053,ND
2016/11/03,03:40,0.61,0.063,ND
2016/11/03,03:50,0.59,0.066,ND
2016/11/03,04:00,0.60,0.064,ND
2016/11/03,04:10,0.59,0.065,ND
2016/11/03,04:20,0.60,0.062,ND
2016/11/03,04:30,0.58,0.062,ND
2016/11/03,04:40,0.58,0.056,ND
2016/11/03,04:50,0.57,0.059,ND
2016/11/03,05:00,0.56,0.059,ND
2016/11/03,05:10,0.53,0.063,ND
2016/11/03,05:20,0.53,0.065,ND
2016/11/03,05:30,0.53,0.061,ND
2016/11/03,05:40,0.54,0.058,ND
2016/11/03,05:50,0.56,0.048,ND
2016/11/03,06:00,0.57,0.046,ND
2016/11/03,06:10,0.59,0.042,ND
2016/11/03,06:20,0.61,0.047,ND
2016/11/03,06:30,0.61,0.046,9.0
2016/11/03,06:40,0.58,0.054,10
2016/11/03,06:50,0.56,0.053,9.5
2016/11/03,07:00,0.54,0.052,ND
2016/11/03,07:10,0.54,0.053,10
2016/11/03,07:20,0.54,0.050,11
2016/11/03,07:30,0.54,0.041,9.9
2016/11/03,07:40,0.54,0.040,ND
2016/11/03,07:50,0.56,0.046,ND
2016/11/03,08:00,0.56,0.045,ND
2016/11/03,08:10,0.52,0.048,ND
2016/11/03,08:20,0.50,0.064,ND
2016/11/03,08:30,0.51,0.073,ND
2016/11/03,08:40,0.51,0.075,ND
2016/11/03,08:50,0.53,0.069,ND
2016/11/03,09:00,0.57,0.076,ND
2016/11/03,09:10,0.61,0.072,ND
2016/11/03,09:20,0.64,0.070,ND
2016/11/03,09:30,0.63,0.075,8.8
2016/11/03,09:40,0.66,0.075,9.3
2016/11/03,09:50,0.66,0.075,9.7
2016/11/03,10:00,0.65,0.080,8.8
2016/11/03,10:10,0.68,0.077,ND
2016/11/03,10:20,0.64,0.066,ND
2016/11/03,10:30,0.69,0.053,ND
2016/11/03,10:40,0.72,0.060,ND
2016/11/03,10:50,0.73,0.071,ND
2016/11/03,11:00,0.72,0.068,ND
2016/11/03,11:10,0.70,0.071,ND
2016/11/03,11:20,0.73,0.081,ND
2016/11/03,11:30,0.71,0.093,ND
2016/11/03,11:40,0.72,0.099,ND
2016/11/03,11:50,0.73,0.096,ND
2016/11/03,12:00,0.73,0.10,ND
2016/11/03,12:10,0.75,0.094,ND
2016/11/03,12:20,0.74,0.084,ND
2016/11/03,12:30,0.72,0.083,ND
2016/11/03,12:40,0.72,0.085,ND
2016/11/03,12:50,0.73,0.072,ND
2016/11/03,13:00,0.72,0.071,ND
2016/11/03,13:10,0.73,0.065,ND
2016/11/03,13:20,0.71,0.061,ND
2016/11/03,13:30,0.71,0.058,ND
2016/11/03,13:40,0.68,0.064,ND
2016/11/03,13:50,0.66,0.073,ND
2016/11/03,14:00,0.64,0.068,ND
2016/11/03,14:10,0.63,0.063,ND
2016/11/03,14:20,0.59,0.066,ND
2016/11/03,14:30,0.58,0.067,ND
2016/11/03,14:40,0.59,0.060,ND
2016/11/03,14:50,0.59,0.057,ND
2016/11/03,15:00,0.60,0.061,ND
2016/11/03,15:10,0.61,0.068,ND
2016/11/03,15:20,0.64,0.074,ND
2016/11/03,15:30,0.63,0.073,ND
2016/11/03,15:40,0.63,0.072,ND
2016/11/03,15:50,0.60,0.058,ND
2016/11/03,16:00,0.63,0.067,ND
2016/11/03,16:10,0.60,0.066,ND
2016/11/03,16:20,0.62,0.060,ND
2016/11/03,16:30,0.66,0.059,ND
2016/11/03,16:40,0.66,0.059,ND
2016/11/03,16:50,0.68,0.061,ND
2016/11/03,17:00,0.69,0.068,ND
2016/11/03,17:10,0.72,0.075,ND
2016/11/03,17:20,0.73,0.072,ND
2016/11/03,17:30,0.74,0.062,ND
2016/11/03,17:40,0.74,0.076,ND
2016/11/03,17:50,0.74,0.070,ND
2016/11/03,18:00,0.72,0.068,ND
2016/11/03,18:10,0.71,0.065,ND
2016/11/03,18:20,0.69,0.068,ND
2016/11/03,18:30,0.67,0.085,ND
2016/11/03,18:40,0.68,0.074,ND
2016/11/03,18:50,0.68,0.089,ND
2016/11/03,19:00,0.71,0.086,ND
2016/11/03,19:10,0.72,0.093,ND
2016/11/03,19:20,0.71,0.098,ND
2016/11/03,19:30,0.74,0.090,ND
2016/11/03,19:40,0.74,0.092,ND
2016/11/03,19:50,0.75,0.086,ND
2016/11/03,20:00,0.77,0.079,ND
2016/11/03,20:10,0.79,0.066,ND
2016/11/03,20:20,0.82,0.061,ND
2016/11/03,20:30,0.82,0.061,ND
2016/11/03,20:40,0.83,0.056,ND
2016/11/03,20:50,0.82,0.065,ND
2016/11/03,21:00,0.83,0.074,ND
2016/11/03,21:10,0.82,0.080,ND
2016/11/03,21:20,0.83,0.080,ND
2016/11/03,21:30,0.83,0.084,ND
2016/11/03,21:40,0.83,0.096,ND
2016/11/03,21:50,0.84,0.088,ND
2016/11/03,22:00,0.85,0.083,ND
2016/11/03,22:10,0.84,0.082,ND
2016/11/03,22:20,0.83,0.082,ND
2016/11/03,22:30,0.81,0.076,ND
2016/11/03,22:40,0.80,0.075,ND
2016/11/03,22:50,0.80,0.078,ND
2016/11/03,23:00,0.78,0.088,ND
2016/11/03,23:10,0.76,0.10,ND
2016/11/03,23:20,0.78,0.090,ND
2016/11/03,23:30,0.76,0.10,ND
2016/11/03,23:40,0.74,0.097,ND
2016/11/03,23:50,0.69,0.079,ND
